• In Germany
  • List of Countries
  • For 7 days
  • Water Temperature
  • Satellite Maps
  • Weather Map
  • Weather Widgets
  • user-avatar
    Login

    Hourly Weather Kalgoorlie

    Today, 24 February, Saturday

    Time Temperature Precipitation Wind Pressure Humidity
    00:00 +23°C° 0.1 mm 10 mps 728 mmHg 69%
    01:00 +23°C° 0.1 mm 10 mps 728 mmHg 71%
    02:00 +22°C° 0 mm 10 mps 729 mmHg 72%
    03:00 +22°C° 0.1 mm 10 mps 729 mmHg 73%
    04:00 +21°C° 0.1 mm 9 mps 729 mmHg 74%
    05:00 +21°C° 0.1 mm 9 mps 730 mmHg 75%
    06:00 +21°C° 0 mm 9 mps 730 mmHg 74%
    07:00 +21°C° 0 mm 9 mps 731 mmHg 73%
    08:00 +21°C° 0 mm 9 mps 731 mmHg 72%
    09:00 +21°C° 0 mm 8 mps 731 mmHg 70%
    10:00 +21°C° 0 mm 8 mps 731 mmHg 68%
    11:00 +21°C° 0 mm 8 mps 731 mmHg 66%
    12:00 +21°C° 0 mm 8 mps 731 mmHg 65%
    13:00 +21°C° 0 mm 7 mps 731 mmHg 64%
    14:00 +21°C° 0 mm 7 mps 731 mmHg 62%
    15:00 +21°C° 0.4 mm 7 mps 731 mmHg 62%
    16:00 +21°C° 0.4 mm 7 mps 731 mmHg 63%
    17:00 +21°C° 0.4 mm 6 mps 730 mmHg 63%
    18:00 +21°C° 0.3 mm 6 mps 731 mmHg 62%
    19:00 +21°C° 0.3 mm 6 mps 731 mmHg 61%
    20:00 +21°C° 0.3 mm 6 mps 731 mmHg 60%
    21:00 +21°C° 0.1 mm 7 mps 731 mmHg 59%
    22:00 +21°C° 0.1 mm 7 mps 731 mmHg 57%
    23:00 +20°C° 0.1 mm 8 mps 731 mmHg 56%

    Tomorrow, 25 February, Sunday

    Time Temperature Precipitation Wind Pressure Humidity
    00:00 +20°C° 0 mm 8 mps 730 mmHg 58%
    01:00 +18°C° 0 mm 8 mps 730 mmHg 60%
    02:00 +18°C° 0 mm 8 mps 729 mmHg 63%
    03:00 +17°C° 0 mm 8 mps 729 mmHg 64%
    04:00 +17°C° 0 mm 8 mps 729 mmHg 65%
    05:00 +17°C° 0 mm 7 mps 729 mmHg 66%
    06:00 +17°C° 0 mm 8 mps 729 mmHg 63%
    07:00 +18°C° 0 mm 8 mps 729 mmHg 61%
    08:00 +18°C° 0 mm 8 mps 729 mmHg 59%
    09:00 +20°C° 0.1 mm 8 mps 729 mmHg 57%
    10:00 +20°C° 0.1 mm 8 mps 728 mmHg 55%
    11:00 +21°C° 0.1 mm 8 mps 728 mmHg 53%
    12:00 +21°C° 0.2 mm 7 mps 728 mmHg 54%
    13:00 +22°C° 0.2 mm 6 mps 727 mmHg 54%
    14:00 +22°C° 0.2 mm 6 mps 727 mmHg 55%
    15:00 +22°C° 0.6 mm 6 mps 727 mmHg 59%
    16:00 +21°C° 0.6 mm 6 mps 727 mmHg 64%
    17:00 +21°C° 0.6 mm 7 mps 726 mmHg 68%
    18:00 +21°C° 0.1 mm 6 mps 726 mmHg 69%
    19:00 +21°C° 0.1 mm 6 mps 726 mmHg 70%
    20:00 +21°C° 0.1 mm 5 mps 726 mmHg 70%
    21:00 +21°C° 0.4 mm 4 mps 725 mmHg 69%
    22:00 +21°C° 0.4 mm 4 mps 725 mmHg 68%
    23:00 +21°C° 0.4 mm 3 mps 725 mmHg 67%

    Day after tomorrow, 26 February, Monday

    Time Temperature Precipitation Wind Pressure Humidity
    00:00 +21°C° 0.3 mm 3 mps 725 mmHg 66%
    01:00 +21°C° 0.3 mm 3 mps 724 mmHg 65%
    02:00 +21°C° 0.3 mm 3 mps 724 mmHg 64%
    03:00 +21°C° 0.1 mm 3 mps 724 mmHg 63%
    04:00 +21°C° 0.1 mm 3 mps 724 mmHg 62%
    05:00 +21°C° 0.1 mm 3 mps 724 mmHg 61%
    06:00 +21°C° 0.2 mm 4 mps 724 mmHg 58%
    07:00 +22°C° 0.2 mm 5 mps 724 mmHg 54%
    08:00 +22°C° 0.2 mm 5 mps 724 mmHg 51%
    09:00 +25°C° 0.1 mm 5 mps 724 mmHg 47%
    10:00 +27°C° 0.1 mm 5 mps 724 mmHg 44%
    11:00 +28°C° 0.1 mm 5 mps 723 mmHg 41%
    12:00 +32°C° 0.1 mm 5 mps 723 mmHg 38%
    13:00 +34°C° 0.1 mm 5 mps 722 mmHg 35%
    14:00 +36°C° 0.1 mm 5 mps 722 mmHg 31%
    15:00 +36°C° 0 mm 6 mps 722 mmHg 32%
    16:00 +35°C° 0 mm 6 mps 722 mmHg 33%
    17:00 +35°C° 0 mm 6 mps 722 mmHg 34%
    18:00 +34°C° 0.3 mm 5 mps 722 mmHg 39%
    19:00 +32°C° 0.3 mm 4 mps 723 mmHg 44%
    20:00 +29°C° 0.3 mm 4 mps 723 mmHg 49%
    21:00 +29°C° 0.3 mm 4 mps 724 mmHg 49%
    22:00 +28°C° 0.3 mm 4 mps 724 mmHg 50%
    23:00 +27°C° 0.3 mm 4 mps 724 mmHg 50%

    27 February, Tuesday

    Time Temperature Precipitation Wind Pressure Humidity
    00:00 +26°C° 0.1 mm 4 mps 724 mmHg 56%
    01:00 +25°C° 0.1 mm 4 mps 725 mmHg 62%
    02:00 +23°C° 0.1 mm 4 mps 725 mmHg 68%
    03:00 +22°C° 0 mm 5 mps 725 mmHg 72%
    04:00 +21°C° 0 mm 5 mps 725 mmHg 76%
    05:00 +20°C° 0 mm 6 mps 726 mmHg 80%
    06:00 +20°C° 0 mm 6 mps 726 mmHg 76%
    07:00 +20°C° 0 mm 6 mps 727 mmHg 72%
    08:00 +20°C° 0 mm 7 mps 728 mmHg 68%
    09:00 +21°C° 0 mm 6 mps 728 mmHg 61%
    10:00 +22°C° 0 mm 6 mps 729 mmHg 54%
    11:00 +24°C° 0 mm 6 mps 729 mmHg 47%
    12:00 +26°C° 0 mm 6 mps 729 mmHg 41%
    13:00 +27°C° 0 mm 6 mps 728 mmHg 36%
    14:00 +28°C° 0 mm 6 mps 728 mmHg 30%
    15:00 +28°C° 0 mm 6 mps 728 mmHg 29%
    16:00 +28°C° 0 mm 6 mps 729 mmHg 27%
    17:00 +28°C° 0 mm 6 mps 729 mmHg 26%
    18:00 +26°C° 0 mm 6 mps 729 mmHg 29%
    19:00 +24°C° 0 mm 7 mps 730 mmHg 33%
    20:00 +23°C° 0 mm 7 mps 731 mmHg 37%
    21:00 +22°C° 0 mm 7 mps 731 mmHg 40%
    22:00 +21°C° 0 mm 7 mps 731 mmHg 44%
    23:00 +20°C° 0 mm 8 mps 731 mmHg 47%

    28 February, Wednesday

    Time Temperature Precipitation Wind Pressure Humidity
    00:00 +18°C° 0 mm 8 mps 731 mmHg 51%
    01:00 +17°C° 0 mm 7 mps 731 mmHg 54%
    02:00 +16°C° 0 mm 7 mps 731 mmHg 57%
    03:00 +16°C° 0 mm 7 mps 731 mmHg 59%
    04:00 +15°C° 0 mm 6 mps 731 mmHg 62%
    05:00 +15°C° 0 mm 6 mps 732 mmHg 64%
    06:00 +15°C° 0 mm 6 mps 732 mmHg 62%
    07:00 +16°C° 0 mm 6 mps 732 mmHg 61%
    08:00 +16°C° 0 mm 6 mps 733 mmHg 60%
    09:00 +19°C° 0 mm 6 mps 733 mmHg 53%
    10:00 +21°C° 0 mm 6 mps 732 mmHg 47%
    11:00 +23°C° 0 mm 6 mps 732 mmHg 40%
    12:00 +24°C° 0 mm 6 mps 732 mmHg 36%
    13:00 +27°C° 0 mm 5 mps 731 mmHg 33%
    14:00 +28°C° 0 mm 5 mps 731 mmHg 29%
    15:00 +28°C° 0 mm 5 mps 730 mmHg 28%
    16:00 +28°C° 0 mm 5 mps 730 mmHg 28%
    17:00 +28°C° 0 mm 5 mps 730 mmHg 27%
    18:00 +27°C° 0 mm 5 mps 730 mmHg 29%
    19:00 +26°C° 0 mm 5 mps 731 mmHg 31%
    20:00 +25°C° 0 mm 5 mps 731 mmHg 33%
    21:00 +25°C° 0 mm 5 mps 731 mmHg 34%
    22:00 +23°C° 0 mm 6 mps 731 mmHg 36%
    23:00 +23°C° 0 mm 6 mps 730 mmHg 37%

    1 March, Thursday

    Time Temperature Precipitation Wind Pressure Humidity
    00:00 +22°C° 0 mm 5 mps 730 mmHg 39%
    01:00 +22°C° 0 mm 5 mps 730 mmHg 41%
    02:00 +21°C° 0 mm 5 mps 730 mmHg 43%
    03:00 +21°C° 0 mm 5 mps 730 mmHg 46%
    04:00 +20°C° 0 mm 5 mps 730 mmHg 49%
    05:00 +20°C° 0 mm 5 mps 730 mmHg 52%
    06:00 +20°C° 0 mm 5 mps 730 mmHg 54%
    07:00 +20°C° 0 mm 6 mps 731 mmHg 57%
    08:00 +20°C° 0 mm 6 mps 731 mmHg 59%
    09:00 +21°C° 0 mm 6 mps 731 mmHg 54%
    10:00 +23°C° 0 mm 6 mps 730 mmHg 49%
    11:00 +24°C° 0 mm 6 mps 730 mmHg 44%
    12:00 +27°C° 0 mm 6 mps 730 mmHg 40%
    13:00 +28°C° 0 mm 6 mps 729 mmHg 36%
    14:00 +30°C° 0 mm 5 mps 729 mmHg 32%
    15:00 +30°C° 0 mm 5 mps 729 mmHg 32%
    16:00 +30°C° 0 mm 5 mps 728 mmHg 32%
    17:00 +30°C° 0 mm 4 mps 728 mmHg 32%
    18:00 +29°C° 0 mm 4 mps 729 mmHg 36%
    19:00 +28°C° 0 mm 5 mps 729 mmHg 39%
    20:00 +27°C° 0 mm 5 mps 729 mmHg 43%
    21:00 +26°C° 0 mm 5 mps 729 mmHg 47%
    22:00 +25°C° 0 mm 5 mps 729 mmHg 51%
    23:00 +23°C° 0 mm 5 mps 729 mmHg 56%
    Show more